Time,TemperatureF,DewpointF,PressureIn,WindDirection,WindDirectionDegrees,WindSpeedMPH,WindSpeedGustMPH,Humidity,HourlyPrecipIn,Conditions,Clouds,dailyrainin,SolarRadiationWatts/m^2,SoftwareType,DateUTC
2013-03-07 00:03:00,60.2,27.0,29.85,ESE,115,0.0,1.0,28,0.00,,,0.00,0,weatherlink.com 1.10,2013-03-07 07:03:00,
2013-03-07 00:18:00,60.2,27.0,29.86,ESE,115,0.0,1.0,28,0.00,,,0.00,0,weatherlink.com 1.10,2013-03-07 07:18:00,
2013-03-07 00:33:00,59.8,26.0,29.86,ESE,115,0.0,1.0,28,0.00,,,0.00,0,weatherlink.com 1.10,2013-03-07 07:33:00,
2013-03-07 00:48:00,59.4,27.0,29.86,ESE,115,1.0,1.0,29,0.00,,,0.00,0,weatherlink.com 1.10,2013-03-07 07:48:00,
2013-03-07 01:04:00,59.0,27.0,29.85,ESE,115,0.0,2.0,29,0.00,,,0.00,0,weatherlink.com 1.10,2013-03-07 08:04:00,
2013-03-07 01:19:00,58.8,26.0,29.85,ESE,115,0.0,3.0,29,0.00,,,0.00,0,weatherlink.com 1.10,2013-03-07 08:19:00,
2013-03-07 01:34:00,58.8,26.0,29.85,ESE,115,1.0,4.0,29,0.00,,,0.00,0,weatherlink.com 1.10,2013-03-07 08:34:00,
2013-03-07 01:49:00,59.0,27.0,29.85,ESE,115,1.0,5.0,29,0.00,,,0.00,0,weatherlink.com 1.10,2013-03-07 08:49:00,
2013-03-07 02:04:00,59.0,27.0,29.85,ESE,115,0.0,3.0,29,0.00,,,0.00,0,weatherlink.com 1.10,2013-03-07 09:04:00,
2013-03-07 02:19:00,58.9,27.0,29.84,ESE,115,0.0,2.0,29,0.00,,,0.00,0,weatherlink.com 1.10,2013-03-07 09:19:00,
2013-03-07 02:34:00,58.5,26.0,29.84,ESE,115,0.0,3.0,29,0.00,,,0.00,0,weatherlink.com 1.10,2013-03-07 09:34:00,
2013-03-07 02:49:00,58.2,27.0,29.83,ESE,115,1.0,3.0,30,0.00,,,0.00,0,weatherlink.com 1.10,2013-03-07 09:49:00,
2013-03-07 03:04:00,58.2,27.0,29.83,ESE,115,1.0,4.0,30,0.00,,,0.00,0,weatherlink.com 1.10,2013-03-07 10:04:00,
2013-03-07 03:19:00,58.0,27.0,29.82,ESE,115,0.0,4.0,30,0.00,,,0.00,0,weatherlink.com 1.10,2013-03-07 10:19:00,
2013-03-07 03:34:00,57.7,26.0,29.82,ESE,115,0.0,4.0,30,0.00,,,0.00,0,weatherlink.com 1.10,2013-03-07 10:34:00,
2013-03-07 04:04:00,56.9,26.0,29.83,ESE,115,2.0,3.0,31,0.00,,,0.00,0,weatherlink.com 1.10,2013-03-07 11:04:00,
2013-03-07 04:19:00,56.8,26.0,29.83,ESE,115,0.0,3.0,31,0.00,,,0.00,0,weatherlink.com 1.10,2013-03-07 11:19:00,
2013-03-07 04:34:00,56.8,26.0,29.83,ESE,115,0.0,4.0,31,0.00,,,0.00,0,weatherlink.com 1.10,2013-03-07 11:34:00,
2013-03-07 04:49:00,56.6,26.0,29.83,ESE,115,1.0,2.0,31,0.00,,,0.00,0,weatherlink.com 1.10,2013-03-07 11:49:00,
2013-03-07 05:04:00,56.3,26.0,29.84,ESE,115,1.0,1.0,31,0.00,,,0.00,0,weatherlink.com 1.10,2013-03-07 12:04:00,
2013-03-07 05:19:00,55.6,26.0,29.84,ESE,115,0.0,1.0,32,0.00,,,0.00,0,weatherlink.com 1.10,2013-03-07 12:19:00,
2013-03-07 05:49:00,53.3,26.0,29.85,ESE,115,0.0,1.0,35,0.00,,,0.00,0,weatherlink.com 1.10,2013-03-07 12:49:00,
2013-03-07 06:04:00,53.0,26.0,29.85,ESE,115,0.0,1.0,35,0.00,,,0.00,0,weatherlink.com 1.10,2013-03-07 13:04:00,
2013-03-07 06:19:00,53.2,26.0,29.86,ESE,115,0.0,1.0,35,0.00,,,0.00,0,weatherlink.com 1.10,2013-03-07 13:19:00,
2013-03-07 06:34:00,53.4,26.0,29.86,ESE,115,0.0,1.0,35,0.00,,,0.00,12,weatherlink.com 1.10,2013-03-07 13:34:00,
2013-03-07 06:49:00,53.7,26.0,29.87,ESE,115,1.0,1.0,35,0.00,,,0.00,37,weatherlink.com 1.10,2013-03-07 13:49:00,
2013-03-07 07:04:00,55.8,27.0,29.87,ESE,115,0.0,3.0,33,0.00,,,0.00,62,weatherlink.com 1.10,2013-03-07 14:04:00,
2013-03-07 07:19:00,57.0,27.0,29.88,ESE,115,0.0,2.0,32,0.00,,,0.00,91,weatherlink.com 1.10,2013-03-07 14:19:00,
2013-03-07 07:34:00,58.0,27.0,29.88,ESE,115,2.0,5.0,30,0.00,,,0.00,70,weatherlink.com 1.10,2013-03-07 14:34:00,
2013-03-07 07:49:00,58.3,27.0,29.89,ESE,115,1.0,4.0,30,0.00,,,0.00,100,weatherlink.com 1.10,2013-03-07 14:49:00,
2013-03-07 08:04:00,58.7,27.0,29.89,ESE,115,0.0,2.0,30,0.00,,,0.00,98,weatherlink.com 1.10,2013-03-07 15:04:00,
2013-03-07 08:19:00,59.0,27.0,29.89,ESE,115,2.0,5.0,30,0.00,,,0.00,357,weatherlink.com 1.10,2013-03-07 15:19:00,
2013-03-07 08:35:00,60.3,27.0,29.89,ESE,115,1.0,4.0,28,0.00,,,0.00,267,weatherlink.com 1.10,2013-03-07 15:35:00,
2013-03-07 08:50:00,61.5,28.0,29.89,ESE,116,2.0,5.0,28,0.00,,,0.00,425,weatherlink.com 1.10,2013-03-07 15:50:00,
2013-03-07 09:05:00,62.0,27.0,29.89,ESE,117,1.0,5.0,27,0.00,,,0.00,272,weatherlink.com 1.10,2013-03-07 16:05:00,
2013-03-07 09:20:00,63.0,28.0,29.89,ESE,117,1.0,5.0,27,0.00,,,0.00,466,weatherlink.com 1.10,2013-03-07 16:20:00,
2013-03-07 09:35:00,63.9,28.0,29.88,ESE,117,0.0,4.0,26,0.00,,,0.00,272,weatherlink.com 1.10,2013-03-07 16:35:00,
2013-03-07 09:50:00,65.1,29.0,29.88,ESE,117,2.0,5.0,26,0.00,,,0.00,636,weatherlink.com 1.10,2013-03-07 16:50:00,
2013-03-07 10:05:00,66.0,29.0,29.88,ESE,119,3.0,7.0,25,0.00,,,0.00,216,weatherlink.com 1.10,2013-03-07 17:05:00,
2013-03-07 10:20:00,65.9,29.0,29.87,ESE,121,3.0,5.0,25,0.00,,,0.00,916,weatherlink.com 1.10,2013-03-07 17:20:00,
2013-03-07 10:35:00,67.9,30.0,29.87,SE,128,2.0,8.0,24,0.00,,,0.00,311,weatherlink.com 1.10,2013-03-07 17:35:00,
2013-03-07 10:50:00,68.8,30.0,29.86,SE,130,2.0,7.0,24,0.00,,,0.00,828,weatherlink.com 1.10,2013-03-07 17:50:00,
2013-03-07 11:20:00,71.0,30.0,29.86,SE,142,2.0,8.0,22,0.00,,,0.00,780,weatherlink.com 1.10,2013-03-07 18:20:00,
2013-03-07 11:35:00,71.6,30.0,29.85,SSE,157,1.0,10.0,21,0.00,,,0.00,796,weatherlink.com 1.10,2013-03-07 18:35:00,
2013-03-07 11:50:00,73.3,31.0,29.85,SSE,156,3.0,5.0,21,0.00,,,0.00,566,weatherlink.com 1.10,2013-03-07 18:50:00,
2013-03-07 12:05:00,72.9,29.0,29.84,SSE,156,0.0,5.0,20,0.00,,,0.00,831,weatherlink.com 1.10,2013-03-07 19:05:00,
2013-03-07 12:20:00,74.0,29.0,29.82,SSE,156,1.0,5.0,19,0.00,,,0.00,780,weatherlink.com 1.10,2013-03-07 19:20:00,
2013-03-07 12:35:00,75.1,30.0,29.81,South,179,4.0,9.0,19,0.00,,,0.00,867,weatherlink.com 1.10,2013-03-07 19:35:00,
2013-03-07 12:50:00,75.8,31.0,29.80,South,187,1.0,10.0,19,0.00,,,0.00,786,weatherlink.com 1.10,2013-03-07 19:50:00,
2013-03-07 13:05:00,76.1,30.0,29.79,South,191,2.0,11.0,18,0.00,,,0.00,608,weatherlink.com 1.10,2013-03-07 20:05:00,
2013-03-07 13:20:00,75.3,30.0,29.78,South,191,10.0,11.0,19,0.00,,,0.00,657,weatherlink.com 1.10,2013-03-07 20:20:00,
2013-03-07 13:36:00,76.9,29.0,29.77,SSW,211,5.0,9.0,17,0.00,,,0.00,701,weatherlink.com 1.10,2013-03-07 20:36:00,
2013-03-07 13:51:00,76.8,29.0,29.76,SW,231,4.0,10.0,17,0.00,,,0.00,766,weatherlink.com 1.10,2013-03-07 20:51:00,
2013-03-07 14:06:00,77.1,27.0,29.76,SSW,209,1.0,13.0,16,0.00,,,0.00,795,weatherlink.com 1.10,2013-03-07 21:06:00,
2013-03-07 14:21:00,77.4,26.0,29.76,SW,218,10.0,12.0,15,0.00,,,0.00,519,weatherlink.com 1.10,2013-03-07 21:21:00,
2013-03-07 14:36:00,76.6,26.0,29.76,South,184,2.0,11.0,15,0.00,,,0.00,415,weatherlink.com 1.10,2013-03-07 21:36:00,
2013-03-07 14:51:00,76.4,27.0,29.76,SW,227,4.0,16.0,16,0.00,,,0.00,383,weatherlink.com 1.10,2013-03-07 21:51:00,
2013-03-07 15:06:00,76.2,27.0,29.76,SW,229,4.0,14.0,16,0.00,,,0.00,417,weatherlink.com 1.10,2013-03-07 22:06:00,
2013-03-07 15:21:00,76.7,27.0,29.75,SW,234,4.0,19.0,16,0.00,,,0.00,304,weatherlink.com 1.10,2013-03-07 22:21:00,
2013-03-07 15:36:00,75.7,26.0,29.74,SW,229,7.0,13.0,16,0.00,,,0.00,322,weatherlink.com 1.10,2013-03-07 22:36:00,
2013-03-07 15:51:00,75.6,26.0,29.74,SW,234,6.0,15.0,16,0.00,,,0.00,338,weatherlink.com 1.10,2013-03-07 22:51:00,
2013-03-07 16:06:00,75.8,26.0,29.74,WSW,244,4.0,14.0,16,0.00,,,0.00,234,weatherlink.com 1.10,2013-03-07 23:06:00,
2013-03-07 16:21:00,75.3,26.0,29.74,WSW,240,4.0,13.0,16,0.00,,,0.00,220,weatherlink.com 1.10,2013-03-07 23:21:00,
2013-03-07 16:36:00,76.1,25.0,29.74,SW,229,5.0,9.0,15,0.00,,,0.00,308,weatherlink.com 1.10,2013-03-07 23:36:00,
2013-03-07 16:51:00,76.0,25.0,29.74,SW,227,4.0,10.0,15,0.00,,,0.00,239,weatherlink.com 1.10,2013-03-07 23:51:00,
2013-03-07 17:06:00,76.6,26.0,29.74,SW,228,3.0,7.0,15,0.00,,,0.00,169,weatherlink.com 1.10,2013-03-08 00:06:00,
2013-03-07 17:21:00,75.5,26.0,29.74,SW,229,3.0,11.0,16,0.00,,,0.00,70,weatherlink.com 1.10,2013-03-08 00:21:00,
2013-03-07 17:36:00,74.6,25.0,29.75,SW,234,3.0,6.0,16,0.00,,,0.00,46,weatherlink.com 1.10,2013-03-08 00:36:00,
2013-03-07 17:51:00,74.2,25.0,29.74,SW,234,2.0,10.0,16,0.00,,,0.00,21,weatherlink.com 1.10,2013-03-08 00:51:00,
2013-03-07 18:06:00,73.6,25.0,29.74,SW,233,3.0,7.0,16,0.00,,,0.00,0,weatherlink.com 1.10,2013-03-08 01:06:00,
2013-03-07 18:21:00,72.8,24.0,29.75,WSW,242,1.0,9.0,16,0.00,,,0.00,0,weatherlink.com 1.10,2013-03-08 01:21:00,
2013-03-07 18:36:00,71.8,25.0,29.75,WSW,246,0.0,4.0,17,0.00,,,0.00,0,weatherlink.com 1.10,2013-03-08 01:36:00,
2013-03-07 18:51:00,71.3,24.0,29.76,WSW,246,0.0,3.0,17,0.00,,,0.00,0,weatherlink.com 1.10,2013-03-08 01:51:00,
2013-03-07 19:06:00,70.7,25.0,29.76,WSW,246,0.0,1.0,18,0.00,,,0.00,0,weatherlink.com 1.10,2013-03-08 02:06:00,
2013-03-07 19:21:00,69.9,24.0,29.77,WSW,246,0.0,2.0,18,0.00,,,0.00,0,weatherlink.com 1.10,2013-03-08 02:21:00,
2013-03-07 19:36:00,69.5,24.0,29.77,WSW,246,0.0,1.0,18,0.00,,,0.00,0,weatherlink.com 1.10,2013-03-08 02:36:00,
2013-03-07 19:51:00,69.5,25.0,29.77,WSW,246,1.0,1.0,19,0.00,,,0.00,0,weatherlink.com 1.10,2013-03-08 02:51:00,
2013-03-07 20:06:00,69.9,26.0,29.78,WSW,246,0.0,3.0,19,0.00,,,0.00,0,weatherlink.com 1.10,2013-03-08 03:06:00,
2013-03-07 20:36:00,69.4,27.0,29.79,WSW,246,0.0,4.0,20,0.00,,,0.00,0,weatherlink.com 1.10,2013-03-08 03:36:00,
2013-03-07 20:51:00,69.2,26.0,29.79,WSW,246,0.0,3.0,20,0.00,,,0.00,0,weatherlink.com 1.10,2013-03-08 03:51:00,
2013-03-07 21:06:00,68.8,27.0,29.79,WSW,246,3.0,3.0,21,0.00,,,0.00,0,weatherlink.com 1.10,2013-03-08 04:06:00,
2013-03-07 21:21:00,68.7,27.0,29.80,WSW,246,0.0,5.0,21,0.00,,,0.00,0,weatherlink.com 1.10,2013-03-08 04:21:00,
2013-03-07 21:36:00,68.0,28.0,29.80,WSW,246,0.0,1.0,22,0.00,,,0.00,0,weatherlink.com 1.10,2013-03-08 04:36:00,
2013-03-07 21:51:00,67.8,27.0,29.81,WSW,246,0.0,3.0,22,0.00,,,0.00,0,weatherlink.com 1.10,2013-03-08 04:51:00,
2013-03-07 22:06:00,68.2,27.0,29.81,WSW,245,2.0,10.0,21,0.00,,,0.00,0,weatherlink.com 1.10,2013-03-08 05:06:00,
2013-03-07 22:21:00,68.3,26.0,29.82,WSW,243,4.0,10.0,20,0.00,,,0.00,0,weatherlink.com 1.10,2013-03-08 05:21:00,
2013-03-07 22:36:00,68.1,25.0,29.82,WSW,238,2.0,10.0,20,0.00,,,0.00,0,weatherlink.com 1.10,2013-03-08 05:36:00,
2013-03-07 22:51:00,67.9,25.0,29.82,WSW,237,1.0,11.0,20,0.00,,,0.00,0,weatherlink.com 1.10,2013-03-08 05:51:00,
2013-03-07 23:06:00,67.6,25.0,29.82,WSW,237,1.0,10.0,20,0.00,,,0.00,0,weatherlink.com 1.10,2013-03-08 06:06:00,
2013-03-07 23:21:00,67.3,25.0,29.83,WSW,238,2.0,8.0,20,0.00,,,0.00,0,weatherlink.com 1.10,2013-03-08 06:21:00,
2013-03-07 23:36:00,67.0,25.0,29.84,WSW,238,1.0,6.0,20,0.00,,,0.00,0,weatherlink.com 1.10,2013-03-08 06:36:00,
2013-03-07 23:51:00,66.3,25.0,29.83,WSW,238,1.0,4.0,21,0.00,,,0.00,0,weatherlink.com 1.10,2013-03-08 06:51:00,